Location: �clusier
(49.9361°N, 2.7869°E)
Time: 01:44:22
(UTC+00:00)

Cosmos 2123 Rocket - Visible Passes

Search period start: 23 October 2021 00:00
Search period end: 02 November 2021 00:00
Orbit: 962 x 991 km, 82.9° (Epoch: 22 October)

Date Brightness Start Highest point End Pass type
(mag) Time Alt. Az. Time Alt. Az. Time Alt. Az.
23 Oct 4.1 17:28:48 10° N 17:35:05 58° ENE 17:41:16 10° SSE visible
23 Oct 6.0 19:14:51 10° NNW 19:20:05 28° W 19:25:18 10° SW visible
24 Oct 6.8 05:21:09 10° ESE 05:25:09 18° ENE 05:29:10 10° NE visible
24 Oct 4.1 17:54:30 10° N 18:00:53 87° W 18:07:11 10° S visible
24 Oct 6.7 19:41:33 10° NW 19:45:20 17° WNW 19:49:07 10° WSW visible
25 Oct 6.2 05:45:05 10° SE 05:50:25 30° E 05:55:46 10° NNE visible
25 Oct 4.9 18:20:24 10° NNW 18:26:31 53° W 18:32:34 10° SSW visible
26 Oct 4.2 17:00:39 10° N 17:06:50 52° ENE 17:12:57 10° SSE visible
26 Oct 5.8 18:46:31 10° NNW 18:51:58 32° W 18:57:23 10° SW visible
27 Oct 6.9 04:53:31 10° ESE 04:57:04 16° ENE 05:00:38 10° NE visible
27 Oct 4.0 17:26:19 10° N 17:32:41 85° E 17:38:58 10° S visible
27 Oct 6.6 19:13:04 10° NW 19:17:16 19° WNW 19:21:27 10° WSW visible
28 Oct 6.4 05:17:13 10° SE 05:22:18 27° E 05:27:26 10° NNE visible
28 Oct 4.7 17:52:08 10° NNW 17:58:21 59° W 18:04:29 10° S visible
28 Oct 7.2 19:41:13 10° WNW 19:42:22 11° WNW 19:43:33 10° W visible
29 Oct 5.4 05:41:48 10° SSE 05:47:42 44° E 05:53:40 10° NNE visible
29 Oct 5.7 18:18:12 10° NNW 18:23:51 35° W 18:29:26 10° SSW visible
30 Oct 7.0 04:26:01 10° ESE 04:29:01 14° ENE 04:32:01 10° NE visible
30 Oct 4.0 16:58:06 10° N 17:04:28 76° E 17:10:44 10° SSE visible
30 Oct 6.5 18:44:37 10° NNW 18:49:10 21° W 18:53:42 10° SW visible
31 Oct 6.5 04:49:22 10° SE 04:54:12 24° E 04:59:03 10° NNE visible
31 Oct 4.5 17:23:54 10° NNW 17:30:11 67° W 17:36:22 10° S visible
31 Oct 7.1 19:12:00 10° NW 19:14:20 12° WNW 19:16:39 10° W visible
01 Nov 5.6 05:13:48 10° SSE 05:19:34 39° E 05:25:22 10° NNE visible
01 Nov 5.5 17:49:54 10° NNW 17:55:42 40° W 18:01:27 10° SSW visible
